Regional Weather Roundup
Issued by NWS Upton, NY

Home | Current Version | Previous Version | Text Only | Print | Product List | Glossary On
Versions: 1 2 3 4 5 6 7 8 9 10 11 12 13 14 15 16 17 18 19 20 21 22 23 24 25 26 27 28 29 30 31 32 33 34 35 36 37 38 39 40 41 42 43 44 45 46 47 48 49 50
000
ASUS41 KOKX 230205
RWROKX

REGIONAL WEATHER ROUNDUP
NATIONAL WEATHER SERVICE NEW YORK NY
1000 PM EDT TUE JUL 22 2014

NOTE: "FAIR" INDICATES FEW OR NO CLOUDS BELOW 12,000 FEET WITH NO
SIGNIFICANT WEATHER AND/OR OBSTRUCTIONS TO VISIBILITY.

NYZ071-072-176-178-NJZ106-104-230300-
NEW YORK CITY METRO AREA


CITY           SKY/WX    TMP DP  RH WIND       PRES   REMARKS
CENTRAL PARK   FAIR      78  66  66 VRB5      30.08F
LAGUARDIA APRT FAIR      80  65  59 S13       30.05F
KENNEDY INTL   FAIR      76  65  68 S16       30.08S
NEWARK/LIBERTY FAIR      80  67  64 S12       30.06R
BRNX BOT. GARD   N/A     79  66  65 SE1       30.06S
TETERBORO      FAIR      81  68  64 S6        30.04S
$$

NYZ177-179-078>081-230300-
LONG ISLAND NEW YORK

CITY           SKY/WX    TMP DP  RH WIND       PRES   REMARKS
FARMINGDALE    FAIR      74  61  63 SW15      30.08S
ISLIP          FAIR      75  64  68 SW13      30.06F
SHIRLEY        FAIR      73  65  75 S8        30.08F
WESTHAMPTON    FAIR      72  65  78 SW9       30.10S
MONTAUK POINT    N/A     72  65  78 SW10G17   30.09S
$$

NYZ052-065-067-230300-
HUDSON VALLEY

CITY           SKY/WX    TMP DP  RH WIND       PRES   REMARKS
WHITE PLAINS   FAIR      74  65  73 S5        30.06F
NEWBURGH       CLEAR     79  70  73 SW9       30.05F
MONTGOMERY     FAIR      74  68  81 SW6       30.04S
POUGHKEEPSIE   FAIR      79  68  69 CALM      30.02F
ALBANY         FAIR      80  70  71 S8        29.99S
$$

NJZ001-105-106-008-010-013-015-019>022-104-230300-
NEW JERSEY

CITY           SKY/WX    TMP DP  RH WIND       PRES   REMARKS
NEWARK/LIBERTY FAIR      80  67  64 S12       30.06R
TETERBORO      FAIR      81  68  64 S6        30.04S
CALDWELL       FAIR      81  66  60 VRB5      30.06S
MORRISTOWN     NOT AVBL
SOMERVILLE     FAIR      79  67  66 S5        30.05R
LINDEN         FAIR      80  66  61 SW5       30.08S
SUSSEX         FAIR      76  70  82 CALM      30.06S
ANDOVER          N/A     74  70  87 CALM      30.07S
TRENTON        FAIR      77  64  64 S9        30.08R
MILLVILLE      FAIR      72  67  84 CALM      30.11S
ATLANTIC CITY  FAIR      72  68  87 S5        30.11S
WRIGHTSTOWN    FAIR      73  61  67 S8        30.08S
TOMS RIVER     FAIR      72  64  78 S5        30.10F
BELMAR         FAIR      75  59  57 SW8       30.09F
$$

PAZ047>061-062-071-230300-
EASTERN PENNSYLVANIA

CITY           SKY/WX    TMP DP  RH WIND       PRES   REMARKS
PHILADELPHIA   FAIR      77  59  53 S8        30.10R
ALLENTOWN      FAIR      78  68  71 SW7       30.07S
SCRANTON       FAIR      78  68  71 S6        30.07S
$$

CTZ002-004>006-009-010-012-RIZ004-006-007-MAZ004-011-015-230300-
SOUTHERN NEW ENGLAND
 IN CT

CITY           SKY/WX    TMP DP  RH WIND       PRES   REMARKS
BRADLEY INTL   FAIR      79  67  66 S9        30.02S
HARTFORD       FAIR      76  66  71 S7        30.04R
DANBURY        FAIR      74  64  71 SW5       30.07F
WTRBRY/OXFORD  FAIR      72  64  78 SW3       30.09F
BRIDGEPORT     FAIR      76  66  71 SW10      30.06S
MERIDEN        FAIR      74  65  73 S7        30.05F
NEW HAVEN      FAIR      77  66  68 SW6       30.06F
CHESTER        FAIR      72  66  83 SW7       30.08F
GROTON         FAIR      71  65  81 W6        30.06F
WILLIMANTIC    FAIR      75  66  73 S8        30.06S

 IN RI

CITY           SKY/WX    TMP DP  RH WIND       PRES   REMARKS
PROVIDENCE     FAIR      74  65  73 SW9       30.05F
BLOCK ISLAND   FAIR      70  63  78 SW16      30.08S
WESTERLY       FAIR      73  65  75 SW6       30.07F

 IN MA

CITY           SKY/WX    TMP DP  RH WIND       PRES   REMARKS
BOSTON         FAIR      79  67  66 SW16G26   30.01S
WORCESTER      FAIR      74  66  76 SW13      30.06S
WESTFIELD      FAIR      79  69  71 S9        30.02S
PROVINCETOWN   FAIR      70  66  88 SW14      30.04S
NANTUCKET      FAIR      67  64  90 SW10      30.08S
$$

ANZ330-335-338-340-345-350-353-355-230300-
COASTAL MARINE OBSERVATIONS


STATION/POSITION TIME  SKY/WX   TEMP    WIND        PRES    VSBY  WAVE
                                AIR SEA DIR/SP/G                  HT/PER
                 (UTC)          (F)     (DEG/KT/KT) (MB)    (MI)  (FT/S)
NY HARB ENTRANCE NOT AVBL
4S FIRE IS       NOT AVBL
23SW MTP         0200            71 71              1018.0          3/ 4
HUDSON CANYON    0200            73 74  220/ 10/ 12 1019.8          2/ 7
EXECUTION ROCKS  0200            76 71  210/ 12/ 16   N/A
WESTERN LI SOUND 0200            75     200/ 10/ 12   N/A           1/ 2
CENTRAL LI SOUND 0100            74 72  210/ 16/ 19   N/A           2/ 3
EASTERN LI SOUND 0100            70 66  280/  4/  8   N/A
ROBBINS REEF     0200            79     200/ 14/ 17   N/A
$$


>>>>>>>>>>>>>>>>>>>>>>>>>>>> KEY <<<<<<<<<<<<<<<<<<<<<<<<<<<
>                                                          <
>     SKY/WX - SKY CONDITION/PRESENT WEATHER               <
>     TMP    - TEMPERATURE IN FAHRENHEIT                   <
>     DP     - DEWPOINT IN FAHRENHEIT                      <
>     RH     - RELATIVE HUMIDITY IN PERCENT                <
>     WIND   - DIRECTION AND SPEED IN MPH                  <
>     PRES   - MEAN SEA LEVEL PRESSURE IN INCHES OF HG     <
>     WCI    - WIND CHILL INDEX                            <
>     VSB    - VISIBILITY IN MILES                         <
>     HX     - HEAT INDEX                                  <
>     TC     - TEMPERATURE IN CELSIUS                      <
>     VRB    - VARIABLE WIND DIRECTION                     <
>                                                          <
>>>>>>>>>>>>>>>>>>>>>>>>>>>> KEY <<<<<<<<<<<<<<<<<<<<<<<<<<<




USA.gov is the U.S. government's official web portal to all federal, state and local government web resources and services.